Temp
63 63 63 63 63 64 64 64 64 64 64 64 64 64 63 63 63 79 87 92 94 82 83 97 99 99 101 97 98 78 60 59 60 62 60 80 79 84 92 88 88 91 89 90 94
63 63 63 63 63 63 64 64 64 64 64 64 64 63 64 63 78 87 90 85 85 84 95 95 95 99 95 95 86 72 61 69 69 66 69 78 82 82 84 85 85 85 90 92 94
63 63 63 63 63 63 63 63 63 63 63 63 63 64 64 67 81 93 83 83 84 87 97 100 101 98 92 95 83 79 73 77 78 82 79 74 78 87 81 74 85 83 86 90 91
63 62 62 62 63 63 63 63 63 62 62 63 64 64 64 77 77 95 83 83 84 95 97 98 97 92 90 79 90 77 81 81 79 81 78 71 77 80 78 78 88 90 90 90 89
62 62 62 62 62 62 62 62 62 62 62 63 64 65 71 82 88 94 82 85 95 95 95 96 94 93 84 87 85 78 80 82 81 78 76 75 72 67 79 84 90 92 91 90 89
62 61 61 61 61 62 61 61 61 61 62 62 64 64 77 80 103 100 99 98 98 98 98 99 96 94 89 86 83 80 82 81 81 77 76 73 73 75 76 79 89 90 89 90 89
61 61 61 61 61 61 61 60 60 61 62 63 65 74 84 89 105 105 103 100 102 102 98 103 102 95 91 75 94 88 79 78 76 75 74 77 70 63 69 80 87 89 88 89 88
61 61 61 61 61 61 60 59 60 62 63 63 65 80 83 104 107 103 105 101 104 105 102 105 103 97 77 71 77 78 78 65 76 77 77 77 63 73 75 77 77 87 88 88 87
60 60 60 60 60 59 58 59 62 66 65 65 72 81 86 92 96 103 105 98 101 102 103 104 99 92 92 76 63 66 63 70 72 81 77 72 64 74 74 77 73 85 85 88 88
60 60 60 60 59 58 58 59 66 65 70 82 87 83 92 93 99 102 105 103 97 97 95 94 92 87 88 80 53 55 61 69 67 75 73 67 68 78 76 74 67 75 87 87 87
61 60 60 59 59 58 64 81 80 81 87 87 90 90 96 101 103 98 102 98 97 93 83 90 83 79 70 79 75 70 66 67 76 81 70 69 68 77 78 76 76 72 74 85 87
61 60 60 59 58 58 67 87 95 97 84 96 96 98 100 101 90 95 102 90 89 82 87 85 78 88 87 85 82 80 74 76 79 84 74 67 67 77 79 79 81 79 79 77 79
60 60 59 58 58 66 89 94 104 102 85 90 98 95 96 98 91 91 96 93 87 83 85 81 86 92 89 86 83 83 80 77 74 81 81 64 65 61 73 81 82 85 81 77 71
59 59 58 56 70 92 93 103 104 103 76 85 90 95 97 97 88 101 100 94 89 83 86 85 91 87 85 83 86 78 87 84 81 75 66 81 61 63 66 71 79 82 83 76 78
59 58 57 56 78 87 97 104 104 97 60 89 91 106 99 90 94 93 101 95 85 85 87 82 85 84 82 84 88 81 87 84 83 75 74 74 69 67 62 66 78 81 83 84 81
58 57 56 77 79 89 101 102 97 74 63 84 91 88 88 90 92 95 93 97 96 88 88 87 95 90 88 91 91 92 85 84 83 79 68 74 75 62 65 67 66 80 84 83 88
56 55 57 76 83 97 98 92 72 65 88 83 84 88 87 85 88 87 84 83 79 74 76 83 85 91 93 86 89 87 81 64 62 65 64 78 75 71 76 78 67 74 84 84 87
55 54 68 81 94 95 91 78 61 78 81 93 90 88 82 87 87 85 82 79 86 85 80 75 72 85 91 86 82 83 81 58 47 52 58 76 69 75 85 89 89 90 89 85 87
54 83 87 89 92 92 81 67 69 78 88 87 89 81 81 86 87 85 82 82 86 88 77 77 77 91 91 92 89 80 77 84 70 75 65 68 79 85 89 88 88 87 88 81 85
63 74 82 97 96 87 74 63 77 86 89 88 78 84 78 82 82 83 82 88 86 91 93 85 74 87 90 92 91 86 89 76 78 64 61 69 69 70 79 83 87 86 69 87 91
69 79 90 97 93 78 65 70 77 86 87 83 81 80 82 81 84 82 83 89 91 91 93 89 83 79 88 82 81 82 79 81 82 76 62 55 65 84 81 85 86 79 66 74 90
78 73 92 94 74 77 71 75 70 83 88 86 85 83 80 81 81 83 82 87 95 94 85 90 85 74 79 90 92 89 84 84 73 69 76 67 69 88 86 88 88 87 88 89 91
71 79 94 90 69 73 79 80 82 81 82 82 81 85 86 80 74 82 86 95 95 92 87 89 79 71 72 84 88 83 85 86 84 80 70 66 67 86 88 87 88 87 86 86 87
71 72 81 84 82 76 75 77 79 87 85 85 82 86 82 79 83 78 82 91 94 93 77 86 83 76 69 66 79 78 81 84 83 75 72 67 73 80 84 84 86 86 87 87 87
73 74 76 69 73 77 79 78 75 77 85 85 80 81 79 74 77 77 81 85 92 77 88 88 76 79 81 81 82 81 82 82 79 80 73 75 73 77 80 81 86 88 88 87 86
68 68 72 72 74 73 69 72 73 77 79 79 77 81 82 76 78 74 82 82 80 87 86 88 74 79 76 75 74 77 82 83 82 82 81 81 77 85 87 87 86 87 87 85 86
74 77 71 65 71 68 70 69 69 76 80 84 82 79 79 81 86 87 88 85 81 77 82 81 78 74 68 76 65 68 79 81 82 85 83 76 81 84 83 85 86 84 87 86 87
MSLP
1015.86 1015.55 1015.16 1014.78 1014.45 1014.11 1013.81 1013.59 1013.37 1013.08 1012.74 1012.46 1012.27 1012.17 1011.94 1011.58 1010.80 1010.10 1008.05 1006.34 1006.06 1006.35 1006.62 1005.81 1004.98 1003.90 1002.99 1002.35 1002.54 1005.79 1008.19 1008.31 1008.64 1009.30 1009.05 1007.29 1006.27 1005.89 1004.80 1004.75 1005.32 1005.27 1006.65 1008.03 1008.74
1015.91 1015.60 1015.24 1014.83 1014.43 1013.97 1013.62 1013.33 1013.09 1012.87 1012.59 1012.29 1012.13 1012.05 1011.88 1011.64 1010.34 1008.05 1006.16 1006.00 1006.16 1006.36 1006.17 1004.88 1003.46 1002.62 1001.89 1001.50 1003.73 1006.07 1006.42 1006.80 1008.02 1008.81 1008.28 1007.41 1006.70 1006.10 1005.29 1005.34 1005.63 1006.44 1007.36 1008.43 1008.77
1015.89 1015.56 1015.20 1014.78 1014.34 1013.90 1013.47 1013.11 1012.84 1012.60 1012.40 1012.15 1011.94 1011.89 1011.79 1011.51 1009.28 1005.44 1005.87 1005.96 1006.07 1006.25 1005.80 1004.45 1003.31 1002.51 1001.54 1001.31 1003.83 1004.48 1005.21 1006.44 1006.75 1006.95 1007.61 1007.74 1007.15 1005.67 1006.02 1006.28 1005.64 1006.60 1007.76 1008.44 1008.68
1015.84 1015.46 1015.10 1014.70 1014.22 1013.76 1013.30 1012.85 1012.58 1012.32 1012.12 1012.00 1011.85 1011.74 1011.64 1010.77 1007.21 1005.46 1005.98 1006.00 1006.08 1005.96 1005.36 1004.12 1002.86 1001.88 1001.35 1002.71 1002.78 1004.02 1005.30 1006.21 1006.83 1007.07 1007.76 1007.96 1007.95 1007.18 1007.07 1007.25 1006.44 1006.79 1007.78 1008.20 1008.39
1015.84 1015.37 1014.93 1014.55 1014.06 1013.59 1013.13 1012.64 1012.25 1012.01 1011.83 1011.77 1011.73 1011.60 1011.26 1008.70 1005.63 1005.50 1005.78 1005.96 1005.88 1005.73 1004.75 1003.34 1002.25 1001.53 1001.78 1002.31 1003.03 1004.61 1005.37 1006.28 1006.96 1007.64 1008.22 1008.42 1008.17 1008.69 1007.84 1007.58 1007.02 1007.07 1007.59 1007.82 1008.01
1015.86 1015.34 1014.80 1014.33 1013.85 1013.33 1012.86 1012.42 1011.99 1011.70 1011.56 1011.52 1011.53 1011.55 1010.07 1006.24 1003.96 1004.81 1004.99 1005.26 1004.94 1004.67 1003.78 1002.95 1002.05 1001.91 1002.52 1003.05 1003.26 1004.78 1005.30 1006.41 1007.01 1007.82 1008.27 1008.71 1009.02 1008.82 1009.13 1008.38 1007.09 1007.09 1007.46 1007.52 1007.77
1015.87 1015.31 1014.74 1014.13 1013.57 1013.05 1012.53 1012.09 1011.64 1011.35 1011.24 1011.30 1011.35 1010.87 1008.05 1004.47 1003.52 1003.68 1004.20 1004.31 1004.20 1003.59 1002.98 1002.22 1002.31 1002.71 1002.92 1004.52 1002.96 1004.30 1005.38 1006.65 1007.46 1007.86 1008.25 1008.68 1009.24 1010.33 1009.83 1009.50 1007.52 1007.29 1007.48 1007.57 1008.11
1015.84 1015.27 1014.65 1014.02 1013.36 1012.80 1012.29 1011.75 1011.27 1010.90 1010.86 1011.09 1011.19 1009.99 1006.08 1003.41 1003.36 1003.56 1003.57 1003.62 1003.59 1003.30 1003.17 1002.38 1002.41 1002.74 1004.50 1006.06 1006.26 1004.79 1005.42 1006.28 1007.05 1007.61 1008.17 1008.36 1008.98 1009.70 1010.02 1009.64 1008.44 1007.55 1007.61 1007.85 1008.35
1015.77 1015.20 1014.51 1013.85 1013.18 1012.58 1012.06 1011.43 1010.94 1010.60 1010.70 1010.98 1010.62 1008.67 1004.52 1003.88 1003.54 1003.19 1003.12 1003.10 1003.20 1003.29 1003.05 1002.76 1002.67 1002.59 1002.90 1005.30 1006.63 1006.97 1006.14 1005.53 1006.24 1006.74 1007.59 1008.29 1008.45 1009.14 1009.49 1009.97 1009.08 1007.65 1007.87 1007.83 1008.10
1015.74 1015.11 1014.35 1013.62 1012.91 1012.30 1011.67 1011.29 1010.74 1010.64 1010.44 1009.81 1008.44 1007.17 1003.90 1002.08 1002.41 1002.66 1002.90 1002.70 1002.78 1002.90 1002.82 1002.55 1002.23 1001.84 1001.64 1003.31 1006.44 1006.98 1006.17 1005.85 1005.56 1006.54 1007.55 1008.29 1008.10 1007.74 1009.35 1009.53 1008.98 1008.74 1007.57 1007.86 1008.28
1015.62 1014.94 1014.09 1013.26 1012.63 1012.18 1011.31 1010.20 1010.08 1008.96 1007.69 1005.63 1004.22 1003.22 1001.55 1001.84 1002.43 1002.53 1002.65 1002.71 1002.55 1002.60 1002.31 1001.97 1001.63 1000.73 1002.51 1003.09 1004.34 1003.85 1005.12 1005.00 1004.43 1005.02 1006.58 1007.48 1006.89 1007.00 1008.36 1009.21 1009.12 1008.75 1008.89 1007.99 1008.64
1015.41 1014.65 1013.78 1012.86 1012.07 1011.70 1011.46 1008.17 1005.38 1005.10 1004.24 1003.17 1002.70 1001.66 1001.44 1001.78 1002.08 1002.10 1002.46 1002.27 1002.16 1001.92 1001.88 1001.26 1000.88 1000.14 1000.81 1001.86 1002.21 1002.30 1003.04 1002.75 1003.28 1003.59 1005.48 1006.91 1007.45 1006.90 1007.34 1008.13 1008.24 1008.58 1008.55 1008.90 1009.70
1015.15 1014.46 1013.66 1012.43 1011.19 1010.72 1008.55 1006.17 1005.04 1004.63 1003.57 1001.45 1000.70 1000.85 1001.08 1001.49 1001.08 1001.36 1002.11 1001.78 1001.66 1001.46 1001.02 1000.32 999.58 999.68 999.68 1000.03 1000.58 1000.57 1000.38 1001.52 1002.57 1002.80 1003.86 1006.21 1007.94 1007.89 1007.56 1007.31 1007.46 1007.29 1008.31 1008.97 1010.71
1015.04 1014.37 1013.72 1012.59 1010.47 1008.47 1006.43 1005.00 1005.09 1004.45 1002.89 999.66 999.70 999.73 1000.33 1000.88 1000.61 1000.55 1001.46 1001.30 1000.92 1000.75 1000.41 999.97 999.43 999.32 999.64 999.72 999.59 999.30 999.80 1000.55 1000.91 1002.25 1002.63 1003.28 1005.25 1006.79 1006.42 1006.55 1006.17 1006.78 1007.35 1008.36 1009.62
1014.89 1014.19 1013.66 1013.81 1011.12 1007.81 1005.76 1005.36 1004.99 1004.58 1001.69 998.35 998.70 998.52 999.57 1000.03 999.35 1000.15 1000.99 1000.80 1000.30 1000.23 1000.15 999.47 999.37 999.18 999.17 999.13 999.12 999.00 999.79 1000.24 1000.26 1001.32 1001.73 1002.33 1003.54 1005.01 1006.17 1006.33 1005.71 1005.86 1005.97 1006.83 1008.02
1014.70 1014.09 1013.82 1011.38 1010.72 1007.71 1006.06 1005.63 1005.15 1003.87 999.89 997.85 998.15 998.88 999.10 999.61 999.46 999.72 1000.59 1000.79 1000.37 999.91 999.77 999.04 998.67 998.78 998.69 998.70 998.63 998.85 999.47 999.93 1000.02 1000.17 1000.30 1001.17 1001.16 1003.97 1005.17 1005.61 1006.08 1005.92 1004.98 1005.54 1005.96
1014.17 1013.51 1013.85 1011.89 1008.55 1006.82 1006.47 1005.64 1004.38 1001.80 998.17 997.11 997.55 998.22 998.54 998.76 998.85 999.72 1000.24 1000.40 1000.08 999.61 999.00 999.04 998.51 998.69 998.43 998.19 998.70 999.13 999.26 1000.25 1000.72 1000.31 1000.15 1000.42 1000.02 1001.66 1002.81 1003.45 1004.60 1004.86 1004.13 1004.80 1005.09
1013.68 1012.24 1010.42 1009.43 1007.56 1007.40 1006.80 1005.68 1003.11 1000.00 998.39 996.36 996.67 997.50 998.04 998.04 998.32 999.12 999.76 999.70 999.65 998.74 997.86 997.64 997.70 998.03 998.11 998.04 998.05 998.60 998.76 1001.27 1002.26 1001.76 1001.28 1000.19 999.37 1000.02 1000.57 1000.98 1001.94 1002.19 1002.81 1003.91 1004.69
1013.19 1009.93 1008.19 1007.35 1007.47 1007.26 1006.56 1004.41 1001.94 1000.23 997.85 996.66 996.18 996.81 997.34 997.54 997.56 998.09 998.67 998.61 998.35 998.19 997.49 996.65 996.19 997.00 997.61 997.86 998.08 998.08 998.05 998.63 1000.07 999.94 1000.69 1000.38 999.07 999.37 999.62 1000.07 1000.66 1001.68 1002.28 1003.46 1003.82
1013.54 1010.15 1006.75 1005.27 1006.44 1006.82 1005.88 1003.43 1001.50 1000.34 998.74 997.75 996.73 996.43 996.55 996.66 996.94 997.01 997.09 997.36 997.27 997.31 997.13 996.57 996.56 996.95 997.09 997.61 997.69 997.87 998.16 997.92 997.80 998.16 998.76 999.26 999.57 999.77 999.90 1000.04 1000.43 1001.24 1003.32 1002.30 1002.88
1012.60 1007.96 1005.51 1005.71 1006.20 1006.20 1004.49 1003.05 1001.89 1000.64 999.78 998.78 997.82 997.16 996.91 996.42 996.21 996.40 996.25 996.21 996.46 996.42 996.82 996.67 996.32 997.14 996.91 997.28 997.41 997.69 997.85 997.84 997.68 998.20 999.74 1000.95 1000.38 999.68 999.97 1000.14 1000.41 1002.11 1003.58 1003.30 1003.19
1010.92 1007.07 1005.28 1005.53 1005.54 1004.66 1003.56 1002.74 1002.03 1000.39 999.52 998.99 998.82 998.28 997.72 997.18 996.30 995.90 995.63 995.27 995.56 996.13 996.25 996.90 996.66 996.81 996.71 996.74 997.22 997.00 996.79 997.10 997.25 998.10 998.36 999.58 999.52 999.68 1000.03 1000.48 1000.68 1001.48 1002.38 1003.17 1003.27
1010.77 1006.48 1004.49 1005.04 1004.33 1003.14 1002.36 1001.68 1001.18 1000.29 999.82 999.38 998.84 998.69 998.12 997.59 997.04 996.14 995.41 994.89 995.21 995.83 996.10 996.90 997.11 996.95 997.61 996.55 996.79 996.88 996.91 997.12 997.48 998.01 998.74 999.17 999.92 999.92 1000.22 1000.65 1001.08 1001.63 1002.75 1003.58 1003.93
1011.43 1006.27 1004.10 1004.17 1004.22 1003.38 1002.17 1000.88 999.92 999.83 999.34 999.29 999.23 998.78 998.55 998.02 997.38 996.97 996.23 995.17 995.68 995.76 996.94 996.89 997.02 996.98 997.04 998.55 997.79 997.09 997.22 997.27 997.19 997.23 998.03 999.99 999.93 999.75 1000.15 1000.77 1001.35 1001.87 1002.82 1003.70 1004.11
1011.23 1007.10 1005.93 1004.46 1003.74 1003.21 1002.44 1001.79 1000.56 999.46 999.47 999.70 999.50 999.01 998.56 998.38 997.92 997.59 996.99 996.11 995.78 996.77 997.00 997.46 997.36 997.46 997.46 998.21 998.06 997.49 996.92 997.03 997.23 997.54 998.02 999.01 1000.01 1000.45 1000.53 1000.98 1001.50 1002.05 1002.74 1003.47 1004.33
1011.35 1009.48 1007.92 1006.52 1005.29 1004.42 1003.36 1002.58 1001.61 1000.71 1000.10 999.20 999.33 999.31 998.78 998.53 998.49 998.15 997.69 997.32 997.07 997.09 997.14 997.63 997.71 997.86 997.86 998.76 999.50 998.43 997.30 997.26 997.48 997.69 998.00 998.37 999.10 1000.19 1000.77 1001.08 1001.55 1002.02 1002.70 1003.45 1004.16
1011.86 1010.64 1009.68 1007.91 1006.35 1005.27 1004.20 1003.70 1003.02 1001.83 1000.87 999.84 999.30 999.32 999.08 999.39 999.22 998.76 998.54 998.53 998.80 998.44 997.29 997.55 997.85 998.16 998.10 998.57 999.82 998.66 997.05 997.07 997.26 997.46 997.83 998.27 998.95 1000.18 1000.81 1001.22 1001.54 1002.20 1002.68 1003.29 1003.97
Wind_Speed
13 14 14 14 14 14 13 12 11 12 12 12 12 11 11 13 18 8 11 3 8 8 1 11 16 17 19 16 7 9 5 3 4 3 4 10 4 5 8 9 7 8 19 21 16
14 14 14 14 14 14 14 13 13 12 12 13 11 10 10 11 10 16 6 8 7 4 9 14 15 15 13 11 7 5 6 6 14 13 14 9 8 6 5 11 14 18 23 19 16
15 15 15 15 15 15 14 14 14 13 12 12 11 9 9 11 8 11 9 9 8 6 12 16 15 15 18 4 2 5 5 7 8 9 16 5 0 1 12 5 13 20 20 18 15
16 16 16 16 16 15 15 15 14 13 13 11 10 9 8 8 4 7 7 6 6 8 13 15 14 18 14 5 5 7 15 9 6 10 9 4 2 10 10 0 6 20 18 16 16
17 17 17 17 16 16 15 15 15 14 13 11 9 7 7 9 11 11 9 7 8 11 14 14 15 10 4 6 8 11 14 11 16 10 9 3 6 3 15 5 10 18 17 16 13
17 17 17 17 16 16 17 15 15 14 13 10 7 5 7 12 14 14 12 11 13 14 15 14 13 3 11 5 8 9 13 11 14 13 13 8 7 9 15 14 11 18 16 13 11
18 18 18 19 18 18 18 16 15 14 12 9 6 7 10 13 2 13 11 13 13 14 14 11 7 12 4 20 15 16 16 14 13 10 8 6 3 9 14 19 11 14 14 12 11
20 20 20 20 20 19 18 17 14 13 11 8 6 9 9 5 5 6 11 12 13 12 13 13 9 14 13 16 17 7 6 8 14 12 7 8 4 4 8 10 10 12 12 13 15
22 22 21 21 20 20 18 17 11 6 4 7 7 8 15 5 10 11 10 12 12 11 12 10 12 14 11 10 8 7 2 9 15 13 11 4 3 7 9 4 11 8 13 16 14
23 23 22 21 21 19 20 10 6 4 6 10 12 11 11 14 9 12 11 11 12 13 11 13 13 15 18 10 8 4 5 11 11 10 12 11 12 7 11 8 9 18 14 16 15
24 24 23 22 22 17 15 6 7 8 12 15 4 14 10 7 6 7 10 11 12 13 14 15 13 16 23 13 24 20 18 18 10 14 11 13 12 12 17 15 20 3 11 15 11
24 22 23 24 24 20 7 8 7 9 14 20 20 11 3 9 9 11 11 12 13 14 16 15 14 18 19 17 21 18 15 8 6 10 11 11 6 7 17 15 15 18 15 7 2
20 21 23 27 30 5 11 16 9 12 11 18 18 14 11 10 11 14 15 15 13 15 16 17 15 13 13 6 9 11 3 8 6 6 7 20 5 7 6 10 15 14 16 6 5
20 21 21 28 8 11 13 8 7 10 9 13 15 12 15 10 13 15 15 13 10 14 15 15 15 3 9 13 10 14 7 10 12 11 5 6 4 4 8 13 18 17 15 18 22
20 20 19 7 12 9 10 8 10 9 8 16 17 13 17 19 13 16 15 17 14 13 12 12 14 14 10 13 12 4 5 9 5 13 7 12 8 6 9 14 19 18 19 20 18
20 20 16 4 8 15 13 11 9 8 11 13 11 12 16 17 11 14 14 16 13 13 14 19 5 10 12 13 12 9 3 9 11 11 12 11 4 1 11 8 19 18 18 16 18
24 22 11 8 8 14 10 8 8 11 14 12 19 14 17 16 14 11 15 15 13 11 11 13 11 10 14 12 6 11 14 2 5 5 9 9 7 8 13 15 26 30 18 19 17
26 28 9 10 9 10 8 8 13 12 21 10 13 15 16 16 14 14 14 14 18 19 12 14 14 14 9 14 7 12 15 8 3 7 6 16 5 8 19 10 11 8 11 7 15
29 8 9 10 11 7 8 13 13 18 18 16 13 12 18 17 11 15 18 16 18 18 19 12 12 18 14 15 12 9 10 10 17 19 12 12 11 12 9 13 12 9 17 19 17
10 8 11 6 8 7 9 18 19 24 26 20 17 11 16 19 19 16 18 17 18 19 17 19 11 12 15 11 10 11 12 10 8 4 1 6 5 8 7 7 7 8 17 12 14
7 7 8 7 6 7 12 16 19 24 24 20 15 18 13 17 16 15 17 14 16 18 13 16 10 6 12 9 13 9 12 11 14 4 6 5 4 11 9 3 7 18 25 24 12
10 8 8 6 8 8 14 19 20 23 18 16 14 19 19 17 21 18 17 14 14 18 19 13 14 13 15 13 13 17 12 9 7 5 6 13 8 13 11 7 12 12 14 12 8
7 10 8 7 9 12 16 21 22 22 19 18 18 18 19 17 16 14 13 17 17 15 10 10 13 11 7 12 15 7 9 11 9 4 7 9 9 10 11 10 9 15 13 8 7
7 6 6 8 11 17 19 16 16 17 16 12 16 18 17 18 16 13 18 16 7 7 6 4 15 15 5 12 15 13 10 14 14 10 7 10 8 13 12 14 6 14 14 9 9
7 6 12 8 8 12 14 16 20 12 13 16 17 20 16 18 14 14 18 19 11 9 4 8 15 17 9 16 17 7 9 6 8 10 11 5 10 1 5 9 12 10 13 12 10
6 11 9 14 16 16 13 11 16 15 18 15 14 18 17 14 14 15 16 15 13 12 13 13 14 15 15 10 19 15 7 7 8 12 10 10 7 16 13 11 11 10 12 10 10
10 12 9 12 15 11 11 12 20 15 19 17 8 7 15 9 12 16 10 11 13 13 14 16 13 12 15 14 20 26 11 10 10 9 6 7 12 14 8 5 6 9 7 9 10
Wind_Direction
347 344 339 336 332 328 325 323 319 315 311 308 307 309 307 311 300 231 248 268 194 155 192 259 217 246 241 254 200 64 38 47 10 50 124 265 103 348 117 131 44 128 142 121 143
350 346 341 336 331 326 322 319 315 312 308 306 306 308 312 319 277 260 197 136 138 147 235 241 242 241 268 239 101 132 219 105 176 183 179 228 139 162 174 115 115 97 108 138 146
350 346 342 337 331 326 321 316 313 310 304 302 304 305 306 302 267 237 150 152 146 207 252 282 296 275 273 23 54 224 48 101 62 108 150 154 130 220 96 55 126 121 132 147 160
348 344 340 337 333 327 320 314 310 306 299 296 299 299 306 252 255 101 151 147 153 250 257 269 252 258 268 73 174 100 88 81 73 118 139 146 291 78 57 261 107 129 146 155 169
343 338 336 334 331 326 320 313 307 300 293 290 291 295 272 218 249 137 152 166 207 229 251 263 275 307 358 7 88 9 97 110 93 94 130 89 319 149 114 200 190 138 150 169 169
341 337 334 331 328 325 322 314 303 293 285 280 276 287 247 252 105 144 176 182 229 214 252 248 278 335 293 257 96 184 117 111 108 122 151 142 21 339 97 273 165 149 158 170 152
341 336 333 331 329 326 323 315 302 287 276 265 250 252 262 269 347 155 199 201 218 250 253 257 292 296 313 339 138 124 132 124 138 155 127 153 111 74 313 292 162 155 167 140 118
343 339 334 330 328 327 323 316 303 288 261 242 228 248 262 161 293 195 207 219 227 242 266 307 305 280 118 239 323 151 105 167 156 152 145 206 216 172 237 331 308 162 150 142 144
342 339 333 329 327 326 323 312 294 309 224 187 224 233 261 108 226 216 214 221 214 234 242 273 276 274 273 135 27 349 325 187 140 157 154 133 273 229 241 209 281 193 172 157 179
342 337 330 327 325 325 320 285 315 266 219 207 261 260 245 234 172 204 208 230 206 220 230 240 249 252 232 159 140 260 289 258 145 187 162 140 247 224 186 147 238 262 179 168 155
340 334 326 323 323 325 320 216 201 199 226 242 223 237 162 106 127 197 197 222 203 212 219 213 235 247 55 54 158 179 223 243 161 195 138 217 216 183 188 204 203 244 288 163 167
335 327 325 322 320 319 269 253 19 340 298 234 246 242 291 144 189 194 186 206 197 208 217 222 235 256 138 203 190 205 184 183 114 163 106 296 237 213 177 196 204 185 225 140 71
326 326 327 322 318 266 246 280 341 314 288 276 212 218 202 173 216 171 195 218 198 218 212 243 219 225 273 236 232 247 239 61 182 216 196 190 95 9 322 252 212 206 158 151 127
322 324 327 332 299 334 262 246 289 306 281 241 188 208 184 215 220 175 197 211 191 225 237 232 270 256 278 265 243 258 12 164 186 177 224 230 213 162 272 274 195 210 195 175 192
320 320 324 313 301 285 3 321 324 281 279 124 172 148 171 213 146 176 186 227 254 216 235 235 229 255 236 244 241 268 178 271 265 190 201 238 243 205 223 255 198 206 204 190 189
316 315 333 292 225 262 301 291 268 237 249 183 135 182 179 219 183 149 183 240 236 247 234 257 236 214 237 235 233 273 293 248 250 250 235 243 262 151 181 158 272 256 202 196 198
316 305 300 292 258 346 320 272 230 242 227 167 165 189 202 196 210 165 196 208 230 230 204 227 235 229 236 219 200 236 247 81 320 279 316 292 256 162 177 189 196 223 181 194 204
315 305 252 231 259 276 272 230 236 248 243 287 176 186 207 220 202 168 197 211 229 234 193 206 187 199 199 233 173 224 258 118 231 227 283 284 113 111 176 154 108 147 158 135 191
310 286 240 224 215 244 234 227 224 249 286 314 197 204 200 228 213 183 205 216 217 237 254 249 230 176 183 232 212 321 235 195 203 229 207 197 102 120 130 127 129 144 159 171 208
316 284 252 176 165 219 232 240 251 249 274 300 290 222 224 210 210 218 200 215 231 218 250 271 128 178 199 206 246 278 318 283 237 283 83 66 5 114 150 128 148 98 41 174 178
262 259 115 142 180 222 232 236 249 262 278 293 279 286 240 270 219 210 245 217 212 236 227 260 282 210 214 189 236 206 236 252 275 339 222 33 269 146 124 142 135 130 120 251 148
283 262 135 174 216 233 240 243 260 269 287 264 259 282 286 290 282 221 234 235 184 228 209 238 266 178 225 207 212 248 244 239 241 267 272 174 149 107 119 167 104 97 84 69 89
278 277 176 211 249 229 245 238 247 253 243 262 262 253 274 277 291 300 243 228 177 193 237 203 244 257 262 220 199 246 257 281 279 227 291 288 130 135 161 141 156 119 111 117 116
278 287 205 194 250 276 292 294 245 240 257 270 266 273 249 264 276 288 289 276 156 174 49 238 245 240 225 46 292 212 223 244 266 271 147 28 183 171 162 147 132 122 132 144 125
249 282 341 288 289 311 272 264 282 272 236 230 247 260 249 251 256 256 274 276 183 140 190 238 245 264 185 198 262 278 195 204 235 289 304 95 124 182 131 147 154 143 136 137 140
298 333 330 307 304 289 283 285 289 284 283 251 222 253 257 255 258 258 254 268 273 189 215 222 243 261 272 81 316 238 249 264 262 278 272 284 129 162 146 132 151 160 148 152 165
346 338 317 284 281 276 283 310 317 307 270 275 296 305 236 284 269 266 306 316 306 303 235 216 240 240 250 185 188 256 225 243 256 257 267 269 113 124 142 150 156 139 170 161 164